Flag for Saudi Arabia Weather past 2 weeks in Makkah, Saudi Arabia

Now
93 °F

Sunny.


Feels Like: 101 °F
Forecast: 75 / 98 °F
Wind: No wind

Location: Mecca Airport

Current Time: Oct 24, 2014 at 11:07:34 AM

Latest Report: Oct 24, 2014 at 10:00 AM


Visibility: 10 mi

Pressure: 29.95 "Hg

Humidity: 49%

Dew point: 72 °F

Location of MakkahLocation

Historic Weather in Makkah — Graph

°F

Makkah temperature yesterday

Maximum temperature yesterday: 102 °F (at 3:00 PM)
Minimum temperature yesterday: 82 °F (at 6:00 AM)
Average temperature yesterday: 91 °F

Past Weeks' High & Low Weather Summary

 TemperatureHumidityPressure
High106 °F (Oct 11, 1:00 PM)79% (Oct 9, 9:00 AM)29.95 "Hg (Oct 9, 9:00 AM)
Low79 °F (Oct 17, 6:00 AM)22% (Oct 16, 2:00 PM)29.74 "Hg (Oct 12, 3:00 PM)
Average91 °F53%29.84 "Hg
* Reported Oct 9 9:00 AM — Oct 24 9:00 AM, Makkah, Weather by CustomWeather, © 2014

Note: Actual official high and low records may vary slightly from our data, if they occured in-between our weather recording intervals... More about our weather records

Advertising

Makkah weather history for previous 24 hours

 ConditionsComfort  
Time TempWeatherWind HumidityBarometerVisibility
9:00 AM
Oct 24
88 °FSunny.No wind62%29.92 "Hg10 mi
8:00 AM81 °FSunny.No wind79%29.89 "Hg10 mi
7:00 AM81 °FSunny.No wind74%29.89 "Hg10 mi
6:00 AM81 °FClear.No wind79%29.89 "Hg10 mi
5:00 AM82 °FClear.No wind74%29.86 "Hg10 mi
4:00 AM82 °FClear.No wind74%29.86 "Hg10 mi
3:00 AM82 °FClear.No wind74%29.86 "Hg10 mi
2:00 AM82 °FClear.No wind79%29.89 "Hg10 mi
1:00 AM82 °FClear.No wind79%29.89 "Hg10 mi
12:00 AM86 °FClear.No wind70%29.89 "Hg10 mi
11:00 PM
Oct 23
86 °FClear.No wind70%29.89 "Hg10 mi
10:00 PM88 °FClear.No wind66%29.92 "Hg10 mi
9:00 PM88 °FClear.No wind66%29.92 "Hg10 mi
8:00 PM90 °FClear.No wind63%29.92 "Hg10 mi
7:00 PM91 °FClear.No wind59%29.89 "Hg10 mi
6:00 PM93 °FClear.3 mph53%29.89 "Hg10 mi
5:00 PM97 °FSunny.5 mph44%29.86 "Hg10 mi
4:00 PM100 °FPassing clouds.No wind37%29.86 "HgN/A
3:00 PM102 °FSunny.5 mph35%29.86 "Hg10 mi
2:00 PM100 °FSunny.6 mph29%29.89 "Hg10 mi
1:00 PM100 °FSunny.6 mph27%29.89 "Hg10 mi
12:00 PM99 °FSunny.5 mph31%29.92 "Hg10 mi
11:00 AM97 °FSunny.2 mph34%29.95 "Hg5 mi
Weather by CustomWeather, © 2014

See weather overviewHow to use our weather pages